Location: Morlupo
(42.1333°N, 12.5000°E)
Time: 16:41:40
(UTC+00:00)

COSMO-SKYMED 1 - Pass Details

Date: 18 September 2020
Orbit: 621 x 623 km, 97.9° (Epoch: 26 October)

Event Time Altitude Azimuth Distance (km) Brightness Sun altitude
Rises 17:32:44 0° 9° (N) 2,913 6.0 -4.3°
Reaches altitude 10° 17:34:57 10° 6° (N) 2,002 5.2 -4.7°
Maximum altitude 17:39:14 62° 286° (WNW) 703 3.2 -5.5°
Drops below altitude 10° 17:43:30 10° 206° (SSW) 1,985 5.4 -6.3°
Sets 17:45:42 0° 203° (SSW) 2,887 6.2 -6.7°
